Regional Weather Roundup
Issued by NWS

Home | Current Version | Previous Version | Graphics & Text | Print | Product List | Glossary On
Versions: 1 2 3 4 5 6 7 8 9 10 11 12 13 14 15 16 17 18 19 20 21 22 23 24 25 26 27 28 29 30 31 32 33 34 35 36 37 38 39 40 41 42 43 44 45 46 47 48 49 50
000
ASUS43 KFSD 130310
RWRSD

WEATHER ROUNDUP FOR SOUTH DAKOTA
NATIONAL WEATHER SERVICE SIOUX FALLS SD
900 PM CST TUE DEC 12 2017

NOTE: "FAIR" INDICATES FEW OR NO CLOUDS BELOW 12,000 FEET WITH NO
SIGNIFICANT WEATHER AND/OR OBSTRUCTIONS TO VISIBILITY.


SDZ001>005-009-010-012>017-130400-
NORTHWEST AND NORTH CENTRAL SOUTH DAKOTA

CITY           SKY/WX    TMP DP  RH WIND       PRES   REMARKS
BUFFALO          N/A     53  13  20 W32G39    29.78S
FAITH            N/A     51  16  24 NW26G37   29.75F
MOBRIDGE       CLOUDY    45  25  45 W7        29.64F
$$

SDZ012>016-024>037-041>051-057-063-072>074-130400-
SOUTHWEST AND SOUTH CENTRAL SOUTH DAKOTA

CITY           SKY/WX    TMP DP  RH WIND       PRES   REMARKS
RAPID CTY ARPT CLOUDY    55  11  17 NW20      29.87F
PIERRE         PTCLDY    50  22  33 W18       29.73F
CUSTER         CLOUDY    50   5  16 NW16G25   29.97S
ELLSWORTH AFB  CLOUDY    58  11  15 NW30G39   29.86S
PHILIP         CLOUDY    40  20  44 W9        29.81F
PINE RIDGE     MOCLDY    46  23  40 W7        29.92F
SPEARFISH      FAIR      55  12  18 W24G32    29.93S
WINNER         FAIR      48  22  35 W10       29.77F
$$

SDZ004>011-016>023-039-040-130400-
NORTHEAST SOUTH DAKOTA

CITY           SKY/WX    TMP DP  RH WIND       PRES   REMARKS
ABERDEEN       CLOUDY    32  26  78 SW8       29.63F WCI  25
WATERTOWN      CLOUDY    29  25  85 S7        29.64F WCI  22
BROOKINGS      CLOUDY    34  26  72 SW7       29.70F WCI  28
SISSETON         N/A     43  28  55 W15       29.56F
$$

SDZ017-020-022-023-036>040-048>070-130400-
SOUTHEAST SOUTH DAKOTA

CITY           SKY/WX    TMP DP  RH WIND       PRES   REMARKS
SIOUX FALLS    CLEAR     39  27  62 SW10      29.73F
HURON          CLOUDY    38  25  59 SW10      29.67F
CHAMBERLAIN    CLEAR     40  23  50 SW7       29.74F
MITCHELL       CLEAR     42  25  50 W9        29.72F
YANKTON        CLEAR     44  21  40 SW14      29.74
$$

ABBREVIATIONS USED IN REMARKS
   TC - TEMPERATURE IN CELSIUS
  WCI - WIND CHILL INDEX
   HX - HEAT INDEX
  VSB - VISIBILITY





USA.gov is the U.S. government's official web portal to all federal, state and local government web resources and services.